{"data":{"norad_id":59273,"epoch":"2026-09-21T12:40:44.688864Z","epoch_age_seconds":73429,"freshness":"FRESH","line1":"1 59273U 24050V   26264.52829501  .00008867  00000+0  27330-3 0  9995","line2":"2 59273  53.1599 350.5573 0001289  74.4239 285.6906 15.34393640140545","mean_motion":15.3439364,"eccentricity":0.0001289,"inclination_deg":53.1599,"raan_deg":350.5573,"arg_perigee_deg":74.4239,"mean_anomaly_deg":285.6906,"bstar":0.0002733,"rev_number":14054,"period_min":93.848147076522,"perigee_km":461.84035678911,"apogee_km":463.60393027631,"semimajor_km":6840.8591435327,"source":"CELESTRAK","updated_at":"2026-09-22T09:00:48.874335Z"}}